"Pseudo-MPEC" for P21CLIV

Created 2023 Feb 2 14:22:13 UT using Find_Orb

Click here for an explanation of pseudo-MPECs

 
 Astrometry: 
     P21CLIV* C2023 01 13$oL5K^UUs2G4FuOR,AstrometryTX]G:m@Lredacted;MUkYVI_%F52
     P21CLIV  C2023 01 13vN+4)`apaup]clickKHiYZ'hereZtt!0lZ@;skG+%+EAfor!aKDAF52
     P21CLIV  C2023 01 13Mg-HZ'v5(wyNWsC*s5,Xn7$58?,explanation=c'j*(QSX)+:'^F52

Station data:
(F52) Pan-STARRS 2, Haleakala  (N20.707382 W156.255910)  US/Hawaii.
   Observers J. Bulger, T. Dukes, T. Lowe, A. Schultz, M. Willman. Measurers
   K. Chambers, S. Chastel, T. de Boer, L. Denneau, J. Fairlamb, H.
   Flewelling, M. Huber, C.-C. Lin, E. Magnier, Y. Ramanjooloo, R. Wainscoat,
   R. Weryk. 1.8-m Ritchey-Chrétien + CCD.

Orbital elements:  P21CLIV
   Perihelion 2022 Nov 28.00009 +/- 74.8 TT =  0:00:07 (JD 2459911.50009)
Epoch 2023 Jan 13.0 TT = JDT 2459957.5   Earth MOID: 0.5405   Ma: 0.0993
M  20.80055098 +/- 27               (J2000 ecliptic)             AutoNEOCP
n   0.45218674 +/- 0.297            Peri.  332.43493 +/- 70
a   1.68108948 +/- 0.735            Node   115.26117 +/- 24
e   0.1008872 +/- 0.275             Incl.   25.08012 +/- 19
P   2.18/796.12d           H 22.23  G  0.15   U 11.9  SR
q 1.51148896 +/- 0.456    Q 1.85068999 +/- 35.2
From 3 observations 2023 Jan. 13 (33.4 min); mean residual 0".10
Residuals in arcseconds: 
230113 F52  .10+  .01-    230113 F52  .20-  .03+    230113 F52  .10+  .01-    

Ephemerides (geocentric):
Date (UTC) HH   RA             Dec           delta  r     elong  mag " sig PA
---- --------  ------------   ------------  ------ ------ -----  --- --------
2023 02 02 14  07 19 59.928   +32 08 30.30  .59714 1.5393 152.3 23.0  43d 167
2023 02 02 15  07 19 57.309   +32 09 51.50  .59736 1.5393 152.2 23.0  43d 167
2023 02 02 16  07 19 54.695   +32 11 12.61  .59757 1.5394 152.2 23.0  43d 167
2023 02 02 17  07 19 52.087   +32 12 33.62  .59779 1.5394 152.1 23.0  43d 167
2023 02 02 18  07 19 49.483   +32 13 54.55  .59801 1.5394 152.0 23.0  43d 167
2023 02 02 19  07 19 46.885   +32 15 15.38  .59823 1.5395 152.0 23.0  43d 167
2023 02 02 20  07 19 44.292   +32 16 36.12  .59845 1.5395 151.9 23.0  43d 167
2023 02 02 21  07 19 41.703   +32 17 56.77  .59867 1.5395 151.9 23.0  43d 167
2023 02 02 22  07 19 39.120   +32 19 17.33  .59889 1.5396 151.8 23.0  43d 167
2023 02 02 23  07 19 36.542   +32 20 37.80  .59911 1.5396 151.8 23.0  43d 167
2023 02 03 00  07 19 33.969   +32 21 58.18  .59933 1.5396 151.7 23.0  43d 167
2023 02 03 01  07 19 31.401   +32 23 18.46  .59955 1.5397 151.6 23.0  43d 167
2023 02 03 02  07 19 28.838   +32 24 38.66  .59977 1.5397 151.6 23.0  43d 167
2023 02 03 03  07 19 26.280   +32 25 58.76  .59999 1.5397 151.5 23.0  43d 167
2023 02 03 04  07 19 23.727   +32 27 18.77  .60021 1.5398 151.5 23.0  43d 167
2023 02 03 05  07 19 21.180   +32 28 38.69  .60044 1.5398 151.4 23.0  43d 167
2023 02 03 06  07 19 18.637   +32 29 58.51  .60066 1.5398 151.3 23.0  43d 167
2023 02 03 07  07 19 16.100   +32 31 18.25  .60088 1.5399 151.3 23.0  43d 167
2023 02 03 08  07 19 13.568   +32 32 37.89  .60111 1.5399 151.2 23.0  43d 167
2023 02 03 09  07 19 11.041   +32 33 57.44  .60133 1.5399 151.2 23.0  43d 167
2023 02 03 10  07 19 08.520   +32 35 16.90  .60155 1.5400 151.1 23.1  43d 167
2023 02 03 11  07 19 06.003   +32 36 36.27  .60178 1.5400 151.1 23.1  43d 167
2023 02 03 12  07 19 03.492   +32 37 55.55  .60200 1.5400 151.0 23.1  43d 167
2023 02 03 13  07 19 00.986   +32 39 14.73  .60223 1.5401 150.9 23.1  43d 167
2023 02 03 14  07 18 58.485   +32 40 33.83  .60246 1.5401 150.9 23.1  43d 167
2023 02 03 15  07 18 55.989   +32 41 52.83  .60268 1.5401 150.8 23.1  43d 167
2023 02 03 16  07 18 53.499   +32 43 11.74  .60291 1.5402 150.8 23.1  43d 167
2023 02 03 17  07 18 51.014   +32 44 30.56  .60313 1.5402 150.7 23.1  43d 167
2023 02 03 18  07 18 48.534   +32 45 49.28  .60336 1.5402 150.7 23.1  43d 167
2023 02 03 19  07 18 46.059   +32 47 07.91  .60359 1.5403 150.6 23.1  43d 167
2023 02 03 20  07 18 43.590   +32 48 26.46  .60382 1.5403 150.6 23.1  43d 167
2023 02 03 21  07 18 41.125   +32 49 44.91  .60404 1.5403 150.5 23.1  43d 167
2023 02 03 22  07 18 38.667   +32 51 03.26  .60427 1.5404 150.4 23.1  43d 167
2023 02 03 23  07 18 36.213   +32 52 21.53  .60450 1.5404 150.4 23.1  43d 167
2023 02 04 00  07 18 33.765   +32 53 39.70  .60473 1.5404 150.3 23.1  43d 167
2023 02 04 01  07 18 31.322   +32 54 57.78  .60496 1.5405 150.3 23.1  43d 167
2023 02 04 02  07 18 28.884   +32 56 15.77  .60519 1.5405 150.2 23.1  43d 167
2023 02 04 03  07 18 26.452   +32 57 33.67  .60542 1.5405 150.2 23.1  43d 167
2023 02 04 04  07 18 24.025   +32 58 51.48  .60565 1.5406 150.1 23.1  43d 167
2023 02 04 05  07 18 21.603   +33 00 09.19  .60588 1.5406 150.0 23.1  43d 167
2023 02 04 06  07 18 19.187   +33 01 26.81  .60611 1.5407 150.0 23.1  44d 167
2023 02 04 07  07 18 16.776   +33 02 44.34  .60635 1.5407 149.9 23.1  44d 167
2023 02 04 08  07 18 14.371   +33 04 01.78  .60658 1.5407 149.9 23.1  44d 167
2023 02 04 09  07 18 11.970   +33 05 19.12  .60681 1.5408 149.8 23.1  44d 167
2023 02 04 10  07 18 09.576   +33 06 36.38  .60704 1.5408 149.8 23.1  44d 167
2023 02 04 11  07 18 07.186   +33 07 53.54  .60728 1.5408 149.7 23.1  44d 167
2023 02 04 12  07 18 04.802   +33 09 10.61  .60751 1.5409 149.6 23.1  44d 167
2023 02 04 13  07 18 02.424   +33 10 27.58  .60774 1.5409 149.6 23.1  44d 167